Погода Ганюшкино

Погода Ганюшкино : погода сейчас, прогноз погоды и архив. Всё, что Вы хотите узнать о погоде Ганюшкино!

Хотите узнать прогноз погоды Ганюшкино? Тогда Вам сюда: Погода Ганюшкино

Поиск расширенной информации на нашем сайте:

Другие новости

Новости СМИ2

Главная страница сайта

Новости сайта

03.07.2017

Напоминаем, что на нашем специализированном сайте Метеоцентр.Азия вы можете получить высокодетализированные автоматические прогнозы погоды по пунктам России, СНГ и мира в авиационном формате (включающие направление и скорость ветра, видимость, явления погоды, количество и форму облачности, нижнюю и верхнюю границу облачности).


Погода Ганюшкино - сегодня

Время (UTC), дата Ветер
(°,м/с) 
Видим.   Явления Облачность Т
(°С)
Тd
(°С)
f(%) Тe
(°С)
Pmin
(гПа)
dP
(гПа)
Po
(мм)
O2
(г/м3)
Тmin Tmax R s Состояние
почвы
18 16.10.17 280 (З) 10 км  {ливн. осадки}  10/0 средняя 
[Ac und]
+6.2 +4.6 89 +4  1007  2.9  757  298    +11.7     
21 16.10.17 290 (З) 10 км    10/0 средняя 
[Ac und]
+6.3 +9.5 100 +4  1007.2  0.2  758  297           
00 17.10.17 280 (З) 10 км    10/10 600 м 
[Sc]
+6.7 +4.4 85 +4  1007.4  0.2  758  297           
03 17.10.17 280 (З) 10 км  в посл. час дождь  10/10 600 м 
[Sc]
+6.9 +5.3 90 +4  1007.5  0.1  758  297         
06 17.10.17 290 (З) 13  4000 м  слаб. дождь  10/10 600 м 
[Sc]
+7.1 +6.4 95 +3  1008.5  759  297  +5.9       
09 17.10.17 320 (СЗ) 14{15}  4000 м  слаб. дождь  10/10 600 м 
[Sc]
+8.3 +7.8 97 +5  1009.4  0.9  759  296           
12 17.10.17 300 (СЗ) 12{15}  4000 м  в посл. час дождь  10/10 600 м 
[Sc]
+8.5 +7 90 +5  1010.7  1.3  760  296           
15 17.10.17 290 (З) 10 км  {дождь}  10/0 средняя 
[Ac und]
+8 +6.1 88 +5  1011.8  1.1  761  297    +9.2     
18 17.10.17 300 (СЗ) 10 км    10/0 средняя 
[Ac und]
+7.3 +5 85 +5  1013.5  1.7  762  298    +9.2     
21 17.10.17 290 (З) 10 км    10/0 средняя 
[Ac und]
+6.5 +3.7 82 +4  1013.8  0.3  763  300           
00 18.10.17 280 (З) 10 км    10/0 средняя 
[Ac und]
+5.5 +2.6 82 +3  1014.9  1.1  763  301           
03 18.10.17 290 (З) 10 км    6/0 средняя 
[Ac trans]
+5.7 +2.2 78 +4  1017.3  2.4  765  302           
06 18.10.17 320 (СЗ) 10 км    ясно 
+9.6 +6.1 79 +8  1019.7  2.4  767  298  +4.2         
09 18.10.17 310 (СЗ) 10 км    10/10 600 м 
[Sc]
+11.2 +6.8 74 +10  1020.8  1.1  768  296           
12 18.10.17 300 (СЗ) 10 км    8/4 600 м средняя 
[Sc|Ac und]
+11 +5.6 69 +10  1021.5  0.7  768  297           
15 18.10.17 280 (З) 10 км    5/0 средняя 
[Ac cuf]
+8.5 +4.1 74 +9  1022.5  1.1  769  300    +11.4       
18 18.10.17 250 (З) 10 км    5/0 верхняя 
[Ci fib]
+5.6 +1.9 77 +5  1022.6  0.1  769  303    +11.4       
21 18.10.17 240 (ЮЗ) 10 км    ясно 
+4.7 +1.9 82 +3  1022  -0.6  769  304           
00 19.10.17 250 (З) 10 км    ясно 
+4.5 +1.4 80 +2  1022.1  0.1  769  305           
03 19.10.17 240 (ЮЗ) 10 км    ясно 
+4.1 +1.3 82 +3  1022.1  769  305           
06 19.10.17 260 (З) 10 км    8/0 верхняя 
[Cs]
+9.7 +6.5 80 +9  1022.4  0.3  769  298  +5.8         
09 19.10.17 230 (ЮЗ) 10 км    10/0 верхняя 
[Cs]
+15.2 +9.8 70 +15  1021.2  -1.3  768  291           
12 19.10.17 200 (Ю) 20000 м    10/0 верхняя 
[Cs]
+16.4 +9.9 65 +17  1020  -1.3  767  290           
15 19.10.17 190 (Ю) 10 км    10/0 средняя 
[Ac und]
+12 +7.4 73 +12  1020  0.1  767  295    +16.6       
18 19.10.17 260 (З) 10 км    ясно 
+9.8 +6.4 79 +9  1019.5  -0.5  767  297    +16.6       
Время (UTC), дата Ветер
(°,м/с) 
Видим.   Явления Облачность Т
(°С)
Тd
(°С)
f(%) Тe
(°С)
Pmin
(гПа)
dP
(гПа)
Po
(мм)
O2
(г/м3)
Тmin Tmax R s Состояние
почвы

Для получения пояснительной информации подведите курсор к названию столбца.

ПОГОДА Ганюшкино - архив

Всё, что Вы хотите узнать о погоде Ганюшкино - удобно и подробно!

Выберите нужную дату (начиная с 1 января 2015* года) и нажмите кнопку "Найти".
Будут отображены архивные сводки погоды по пункту Ганюшкино, начиная с указанной даты.


Отображать данные в формате CSV (для использования в таблицах Excel)


Внимание! Наш архив погоды предназначен исключительно для личного некоммерческого использования в познавательных целях. Если Вам необходимы официальные справки о состоянии погоды (для производственных, юридических, коммерческих и т.п. целей), обращайтесь в органы Росгидромета.

*Примечание: данная дата относится к архиву по метеостанциям СССР (Россия, СНГ, Балтия).
Архив по метеостанциям Зарубежной Европы и Азии (кроме Китая) хранится 10 дней, по другим регионам земного шара (Китай, Африка, Америка, Австралия, Океания) - 1 день.

Ганюшкино - район местоположения метеостанции


Название, широта, долгота, высота метеостанции:
Ганюшкино 46.6°ш. 49.3°д. -23 м над ур. моря [Казахстан]

Дополнительная информация

В oтличие oт бoльшинства пoгoдных сайтoв мы публикуем пoдрoбную метеoинфoрмацию в детальнoм прoфессиoнальнoм фoрмате.

Характеристики температуры и влажнoсти вoздуха измеряются на высoте 2 м в тени вдали oт зданий и деревьев.
Скoрoсть ветра измеряется на высoте 10 м (на урoвне рoста челoвека скoрoсть ветра ниже в 1.5-2 раза). Если метеoстанция нахoдится в гoрoде или в лесу, тo скoрoсть ветра занижена на 2-4 м/с пo сравнению с oткрытым местoм. Скoрoсть ветра над акватoриями крупных рек и oзёр, а также на вершинах хoлмoв на 2-5 м/с выше, чем в oбычных услoвиях.
Атмoсфернoе давление в разных тoчках местнoсти мoжет значительнo oтличаться oт давления на метеoстанции, в зависимoсти oт услoвий рельефа (при пoдъёме на 10 м давление пoнижается примернo на 1 мм рт.ст.).